Flag for Canada Weather past 2 weeks in Caledon, Ontario, Canada

Now
43 °F

Rain. Mostly cloudy.


Feels Like: 39 °F
Forecast: 30 / 50 °F
Wind: 6 mph from North

Location: Borden


UV Index: 3 (Moderate)

Visibility: 5 mi


Pressure: 30.27 "Hg

Humidity: 100%

Dew point: 43 °F

Location of CaledonLocation

Historic Weather in Caledon

°F

Caledon temperature yesterday

Maximum temperature yesterday: 48 °F (at 5:00 PM)
Minimum temperature yesterday: 23 °F (at 12:00 AM)
Average temperature yesterday: 37 °F

Past Weeks' High & Low Weather Summary

 TemperatureHumidityPressure
High68 °F (Apr 13, 2:00 PM)100% (Apr 4, 12:00 PM)30.58 "Hg (Apr 4, 12:00 PM)
Low18 °F (Apr 6, 6:00 AM)31% (Apr 11, 1:00 PM)29.36 "Hg (Apr 8, 4:55 AM)
Average40 °F73%29.93 "Hg
* Reported Apr 3 11:00 AM — Apr 18 11:04 AM, Caledon, Weather by CustomWeather, © 2014

Note: Actual official high and low records may vary slightly from our data, if they occured in-between our weather recording intervals... More about our weather records

Advertising

Historic Weather Conditions — Data for Previous 24 hours

 ConditionsComfort  
Time TempWeatherWind HumidityBarometerVisibility
11:04 AM
Apr 18
45 °FLight rain. Broken clouds.3 mph87%30.26 "Hg6 mi
10:47 AM45 °FLight rain. Partly sunny.3 mph81%30.26 "Hg9 mi
10:00 AM45 °FMostly cloudy.3 mph71%30.29 "Hg9 mi
9:00 AM43 °FPartly sunny.6 mph71%30.28 "Hg9 mi
8:00 AM43 °FPartly sunny.6 mph66%30.28 "Hg9 mi
7:00 AM41 °FOvercast.6 mph70%30.27 "Hg9 mi
6:00 AM41 °FPassing clouds.6 mph66%30.24 "Hg9 mi
5:00 AM41 °FClear.8 mph66%30.25 "Hg9 mi
4:00 AM41 °FClear.7 mph66%30.26 "Hg9 mi
3:00 AM37 °FClear.5 mph70%30.27 "Hg9 mi
2:00 AM37 °FPassing clouds.6 mph65%30.30 "Hg9 mi
1:00 AM39 °FPassing clouds.6 mph61%30.32 "Hg9 mi
12:00 AM37 °FPassing clouds.6 mph65%30.33 "Hg9 mi
11:00 PM
Apr 17
39 °FOvercast.2 mph65%30.35 "Hg9 mi
10:00 PM41 °FOvercast.6 mph61%30.37 "Hg9 mi
9:00 PM43 °FSunny.7 mph53%30.38 "Hg9 mi
8:00 PM45 °FSunny.8 mph53%30.39 "Hg9 mi
7:00 PM46 °FSunny.13 mph46%30.39 "Hg9 mi
6:00 PM48 °FSunny.16 mph43%30.39 "Hg9 mi
5:00 PM48 °FSunny.18 mph43%30.40 "Hg9 mi
4:00 PM46 °FPassing clouds.15 mph43%30.42 "Hg9 mi
3:00 PM46 °FSunny.15 mph43%30.45 "Hg9 mi
2:00 PM45 °FSunny.20 mph46%30.46 "Hg9 mi
1:00 PM45 °FSunny.23 mph39%30.46 "Hg9 mi
12:00 PM43 °FPassing clouds.18 mph39%30.51 "Hg9 mi
Weather by CustomWeather, © 2014

See weather overview